This demonstration page uses our WeatherBlox Daily Observations layout. Learn more.

Left ArrowRight Arrow

39.08367, -84.50855

Hourly Observations for December 13, 2020

Temp ( °F °C ) Dew Point ( °F °C ) Humidity (%) Winds ( mph kmh ) Pressure ( in mb ) Visibility ( mi km ) Precip ( " mm )
12:53 am 00:53 Cloudy 44 6.7 36 2.2 73 73 WSW 7 11 30.01 1016 10 16.0934 0 0
1:04 am 01:04 Cloudy 44 6.7 36 2.2 73 73 WSW 7 11 30.02 1017 10 16.0934 0 0
1:25 am 01:25 Cloudy 44 6.7 36 2.2 73 73 WSW 6 9 30.02 1017 10 16.0934 0 0
1:53 am 01:53 Cloudy 44 6.7 36 2.2 73 73 WSW 6 9 30.01 1016 10 16.0934 0 0
2:53 am 02:53 Cloudy 44 6.7 37 2.8 76 76 WSW 9 15 30.05 1018 9 14.48406 0 0
3:53 am 03:53 Cloudy with Light Rain 43 6.1 38 3.3 82 82 W 8 13 30.07 1018 9 14.48406 0.001 0.001
4:38 am 04:38 Cloudy 43 6.1 34 1.1 71 71 W 12 19 30.1 1019 10 16.0934 0.001 0.001
4:53 am 04:53 Cloudy 43 6.1 34 1.1 71 71 W 10 17 30.08 1019 10 16.0934 0.001 0.001
5:21 am 05:21 Cloudy 43 6.1 34 1.1 71 71 W 9 15 30.12 1020 10 16.0934 0 0
5:38 am 05:38 Cloudy 43 6.1 34 1.1 71 71 WNW 8 13 30.13 1020 10 16.0934 0 0
5:53 am 05:53 Cloudy 43 6.1 34 1.1 71 71 WNW 8 13 30.11 1020 10 16.0934 0 0
6:53 am 06:53 Cloudy 42 5.6 34 1.1 73 73 NNW 7 11 30.14 1021 10 16.0934 0 0
7:53 am 07:53 Cloudy 42 5.6 34 1.1 73 73 NW 3 6 30.15 1021 10 16.0934 0 0
8:53 am 08:53 Cloudy 42 5.6 35 1.7 76 76 WNW 6 9 30.17 1022 10 16.0934 0 0
9:53 am 09:53 Cloudy 43 6.1 35 1.7 74 74 N 3 6 30.19 1022 10 16.0934 0 0
10:53 am 10:53 Cloudy 43 6.1 34 1.1 71 71 NNE 6 9 30.19 1022 10 16.0934 0 0
11:53 am 11:53 Cloudy 44 6.7 34 1.1 68 68 Calm 30.17 1022 10 16.0934 0 0
12:53 pm 12:53 Cloudy 44 6.7 34 1.1 68 68 Calm 30.15 1021 10 16.0934 0 0
1:53 pm 13:53 Cloudy 44 6.7 33 0.6 65 65 Calm 30.14 1021 10 16.0934 0 0
2:53 pm 14:53 Cloudy 44 6.7 33 0.6 65 65 Calm 30.14 1021 10 16.0934 0 0
3:53 pm 15:53 Cloudy 43 6.1 35 1.7 74 74 S 3 6 30.14 1021 10 16.0934 0 0
4:53 pm 16:53 Cloudy 44 6.7 34 1.1 68 68 Calm 30.14 1021 10 16.0934 0 0
5:53 pm 17:53 Cloudy 43 6.1 33 0.6 68 68 Calm 30.15 1021 10 16.0934 0 0
6:53 pm 18:53 Cloudy 42 5.6 35 1.7 76 76 Calm 30.13 1020 10 16.0934 0 0
7:53 pm 19:53 Cloudy 42 5.6 36 2.2 79 79 Calm 30.11 1020 10 16.0934 0 0
8:53 pm 20:53 Cloudy 41 5 36 2.2 82 82 Calm 30.13 1020 10 16.0934 0 0
9:53 pm 21:53 Cloudy 41 5 35 1.7 79 79 N 3 6 30.12 1020 10 16.0934 0 0
10:53 pm 22:53 Cloudy 41 5 33 0.6 73 73 N 5 7 30.1 1019 10 16.0934 0 0
11:51 pm 23:51 Cloudy 41 5 34 1 76 76 SE 3 6 30.09 1019 10 16.0934 0 0
11:53 pm 23:53 Cloudy 41 5 34 1.1 76 76 SE 3 6 30.08 1019 10 16.0934 0 0

Powered by AerisWeather